Time,TemperatureF,DewpointF,PressureIn,WindDirection,WindDirectionDegrees,WindSpeedMPH,WindSpeedGustMPH,Humidity,HourlyPrecipIn,Conditions,Clouds,dailyrainin,SoftwareType,DateUTC
2013-05-11 00:00:00,62.1,61.5,29.87,North,359,5.0,5.0,98,0.00,,,0.55,Wunderground v.1.15,2013-05-11 04:00:00,
2013-05-11 00:05:00,62.0,61.4,29.87,NNW,329,5.0,6.0,98,0.00,,,0.55,Wunderground v.1.15,2013-05-11 04:05:00,
2013-05-11 00:10:00,61.9,61.3,29.87,NW,304,4.0,4.0,98,0.06,,,0.56,Wunderground v.1.15,2013-05-11 04:10:00,
2013-05-11 00:15:00,61.7,61.1,29.85,WSW,243,3.0,6.0,98,0.09,,,0.57,Wunderground v.1.15,2013-05-11 04:15:00,
2013-05-11 00:25:00,61.5,60.9,29.83,WSW,244,5.0,6.0,98,0.15,,,0.60,Wunderground v.1.15,2013-05-11 04:25:00,
2013-05-11 00:35:00,61.5,61.2,29.83,WSW,240,3.0,7.0,99,0.06,,,0.60,Wunderground v.1.15,2013-05-11 04:35:00,
2013-05-11 00:40:00,61.6,61.3,29.84,NE,56,2.0,7.0,99,0.04,,,0.60,Wunderground v.1.15,2013-05-11 04:40:00,
2013-05-11 00:50:00,61.6,61.3,29.85,NE,40,3.0,7.0,99,0.12,,,0.62,Wunderground v.1.15,2013-05-11 04:50:00,
2013-05-11 00:55:00,61.6,61.3,29.85,NE,39,4.0,7.0,99,0.15,,,0.63,Wunderground v.1.15,2013-05-11 04:55:00,
2013-05-11 01:00:00,61.6,61.3,29.84,NE,35,3.0,3.0,99,0.13,,,0.64,Wunderground v.1.15,2013-05-11 05:00:00,
2013-05-11 01:10:00,61.4,61.1,29.84,NW,311,3.0,6.0,99,0.10,,,0.66,Wunderground v.1.15,2013-05-11 05:10:00,
2013-05-11 01:20:00,61.3,61.0,29.81,West,266,4.0,6.0,99,0.08,,,0.67,Wunderground v.1.15,2013-05-11 05:20:00,
2013-05-11 01:25:00,61.1,60.8,29.80,West,277,5.0,7.0,99,0.07,,,0.67,Wunderground v.1.15,2013-05-11 05:25:00,
2013-05-11 01:35:00,60.9,60.6,29.80,West,281,6.0,10.0,99,0.00,,,0.67,Wunderground v.1.15,2013-05-11 05:35:00,
2013-05-11 01:40:00,60.8,60.5,29.80,NW,314,5.0,10.0,99,0.00,,,0.67,Wunderground v.1.15,2013-05-11 05:40:00,
2013-05-11 01:45:00,60.9,60.6,29.80,NW,319,6.0,10.0,99,0.00,,,0.67,Wunderground v.1.15,2013-05-11 05:45:00,
2013-05-11 01:55:00,61.1,60.8,29.79,NW,312,5.0,10.0,99,0.00,,,0.67,Wunderground v.1.15,2013-05-11 05:55:00,
2013-05-11 02:00:00,61.2,60.9,29.79,WNW,297,6.0,10.0,99,0.00,,,0.67,Wunderground v.1.15,2013-05-11 06:00:00,
2013-05-11 02:10:00,61.3,61.0,29.77,NW,311,6.0,10.0,99,0.00,,,0.67,Wunderground v.1.15,2013-05-11 06:10:00,
2013-05-11 02:15:00,61.3,61.0,29.78,NW,316,6.0,10.0,99,0.00,,,0.67,Wunderground v.1.15,2013-05-11 06:15:00,
2013-05-11 02:20:00,61.3,61.0,29.78,NW,323,6.0,10.0,99,0.00,,,0.67,Wunderground v.1.15,2013-05-11 06:20:00,
2013-05-11 02:25:00,61.4,61.1,29.78,NW,316,7.0,10.0,99,0.00,,,0.67,Wunderground v.1.15,2013-05-11 06:25:00,
2013-05-11 02:35:00,61.4,61.1,29.78,NW,305,7.0,12.0,99,0.00,,,0.67,Wunderground v.1.15,2013-05-11 06:35:00,
2013-05-11 02:40:00,61.4,60.8,29.78,NW,318,6.0,12.0,98,0.00,,,0.67,Wunderground v.1.15,2013-05-11 06:40:00,
2013-05-11 02:50:00,61.4,60.8,29.78,NNW,345,4.0,12.0,98,0.00,,,0.67,Wunderground v.1.15,2013-05-11 06:50:00,
2013-05-11 03:00:00,61.4,60.8,29.77,NNW,345,3.0,13.0,98,0.00,,,0.67,Wunderground v.1.15,2013-05-11 07:00:00,
2013-05-11 03:10:00,61.4,60.8,29.77,NNW,330,1.0,1.0,98,0.00,,,0.67,Wunderground v.1.15,2013-05-11 07:10:00,
2013-05-11 03:15:00,61.3,60.7,29.78,WNW,288,1.0,13.0,98,0.00,,,0.67,Wunderground v.1.15,2013-05-11 07:15:00,
2013-05-11 03:25:00,61.4,60.8,29.78,NNW,327,1.0,13.0,98,0.00,,,0.67,Wunderground v.1.15,2013-05-11 07:25:00,
2013-05-11 03:30:00,61.4,61.1,29.78,ENE,60,1.0,1.0,99,0.00,,,0.68,Wunderground v.1.15,2013-05-11 07:30:00,
2013-05-11 03:35:00,61.5,61.2,29.78,NNW,347,1.0,3.0,99,0.00,,,0.68,Wunderground v.1.15,2013-05-11 07:35:00,
2013-05-11 03:45:00,61.5,60.9,29.78,NE,51,2.0,4.0,98,0.04,,,0.69,Wunderground v.1.15,2013-05-11 07:45:00,
2013-05-11 03:55:00,61.5,60.9,29.78,NW,326,4.0,4.0,98,0.05,,,0.00,Wunderground v.1.15,2013-05-11 07:55:00,
2013-05-11 04:00:00,61.5,60.9,29.78,North,356,5.0,5.0,98,0.05,,,0.00,Wunderground v.1.15,2013-05-11 08:00:00,
2013-05-11 04:10:00,61.5,60.9,29.77,NNW,340,4.0,10.0,98,0.10,,,0.02,Wunderground v.1.15,2013-05-11 08:10:00,
2013-05-11 04:15:00,61.5,60.9,29.77,NNW,347,5.0,10.0,98,0.05,,,0.02,Wunderground v.1.15,2013-05-11 08:15:00,
2013-05-11 04:25:00,61.5,60.9,29.77,NNE,25,7.0,10.0,98,0.00,,,0.02,Wunderground v.1.15,2013-05-11 08:25:00,
2013-05-11 04:35:00,61.6,61.0,29.76,NNW,343,7.0,10.0,98,0.00,,,0.02,Wunderground v.1.15,2013-05-11 08:35:00,
2013-05-11 04:45:00,61.6,61.0,29.76,NNW,336,4.0,10.0,98,0.00,,,0.02,Wunderground v.1.15,2013-05-11 08:45:00,
2013-05-11 04:55:00,61.6,61.0,29.76,NNW,348,5.0,10.0,98,0.00,,,0.02,Wunderground v.1.15,2013-05-11 08:55:00,
2013-05-11 05:00:00,61.6,61.0,29.76,North,6,4.0,10.0,98,0.00,,,0.02,Wunderground v.1.15,2013-05-11 09:00:00,
2013-05-11 05:10:00,61.6,61.0,29.76,NNE,23,3.0,10.0,98,0.00,,,0.02,Wunderground v.1.15,2013-05-11 09:10:00,
2013-05-11 05:15:00,61.6,61.0,29.76,NNE,22,3.0,10.0,98,0.00,,,0.02,Wunderground v.1.15,2013-05-11 09:15:00,
2013-05-11 05:20:00,61.6,61.0,29.75,NE,36,3.0,10.0,98,0.00,,,0.02,Wunderground v.1.15,2013-05-11 09:20:00,
2013-05-11 05:25:00,61.6,61.0,29.75,NNE,25,3.0,10.0,98,0.00,,,0.02,Wunderground v.1.15,2013-05-11 09:25:00,
2013-05-11 05:35:00,61.7,61.1,29.75,NE,42,3.0,6.0,98,0.00,,,0.02,Wunderground v.1.15,2013-05-11 09:35:00,
2013-05-11 05:40:00,61.7,61.1,29.75,NNE,30,4.0,6.0,98,0.00,,,0.02,Wunderground v.1.15,2013-05-11 09:40:00,
2013-05-11 05:50:00,62.0,61.4,29.75,NE,42,6.0,6.0,98,0.00,,,0.03,Wunderground v.1.15,2013-05-11 09:50:00,
2013-05-11 05:55:00,62.1,61.5,29.75,ENE,73,6.0,6.0,98,0.00,,,0.03,Wunderground v.1.15,2013-05-11 09:55:00,
2013-05-11 06:00:00,62.2,61.6,29.75,NNE,32,7.0,10.0,98,0.00,,,0.03,Wunderground v.1.15,2013-05-11 10:00:00,
2013-05-11 06:10:00,62.3,61.7,29.75,NNE,26,7.0,10.0,98,0.00,,,0.03,Wunderground v.1.15,2013-05-11 10:10:00,
2013-05-11 06:15:00,62.3,61.7,29.75,NE,40,7.0,10.0,98,0.00,,,0.03,Wunderground v.1.15,2013-05-11 10:15:00,
2013-05-11 06:20:00,62.4,61.8,29.75,NE,42,6.0,10.0,98,0.00,,,0.03,Wunderground v.1.15,2013-05-11 10:20:00,
2013-05-11 06:25:00,62.4,61.8,29.75,NNE,32,7.0,10.0,98,0.00,,,0.03,Wunderground v.1.15,2013-05-11 10:25:00,
2013-05-11 06:35:00,62.4,61.8,29.75,North,10,8.0,11.0,98,0.00,,,0.03,Wunderground v.1.15,2013-05-11 10:35:00,
2013-05-11 06:45:00,62.5,61.9,29.76,North,10,9.0,15.0,98,0.00,,,0.03,Wunderground v.1.15,2013-05-11 10:45:00,
2013-05-11 06:55:00,62.6,61.7,29.76,NE,34,10.0,11.0,97,0.00,,,0.03,Wunderground v.1.15,2013-05-11 10:55:00,
2013-05-11 07:00:00,62.6,61.7,29.76,NNE,18,10.0,10.0,97,0.00,,,0.03,Wunderground v.1.15,2013-05-11 11:00:00,
2013-05-11 07:10:00,62.7,61.8,29.76,NNE,25,10.0,15.0,97,0.00,,,0.03,Wunderground v.1.15,2013-05-11 11:10:00,
2013-05-11 07:15:00,62.8,61.9,29.76,NNE,30,10.0,15.0,97,0.00,,,0.03,Wunderground v.1.15,2013-05-11 11:15:00,
2013-05-11 07:20:00,62.9,62.0,29.76,NNE,17,10.0,10.0,97,0.00,,,0.03,Wunderground v.1.15,2013-05-11 11:20:00,
2013-05-11 07:30:00,63.1,62.2,29.75,North,349,8.0,16.0,97,0.00,,,0.03,Wunderground v.1.15,2013-05-11 11:30:00,
2013-05-11 07:40:00,63.3,62.4,29.75,NE,40,8.0,8.0,97,0.00,,,0.03,Wunderground v.1.15,2013-05-11 11:40:00,
2013-05-11 07:45:00,63.5,62.6,29.75,NNE,33,7.0,16.0,97,0.00,,,0.03,Wunderground v.1.15,2013-05-11 11:45:00,
2013-05-11 07:55:00,63.9,62.7,29.75,NE,35,7.0,16.0,96,0.00,,,0.03,Wunderground v.1.15,2013-05-11 11:55:00,
2013-05-11 08:00:00,64.2,63.0,29.75,NE,34,8.0,8.0,96,0.00,,,0.03,Wunderground v.1.15,2013-05-11 12:00:00,
2013-05-11 08:10:00,64.6,63.1,29.75,North,11,6.0,13.0,95,0.00,,,0.03,Wunderground v.1.15,2013-05-11 12:10:00,
2013-05-11 08:15:00,64.7,63.2,29.75,North,4,6.0,13.0,95,0.00,,,0.03,Wunderground v.1.15,2013-05-11 12:15:00,
2013-05-11 08:25:00,64.7,63.2,29.75,NNE,22,7.0,13.0,95,0.00,,,0.03,Wunderground v.1.15,2013-05-11 12:25:00,
2013-05-11 08:30:00,64.9,63.4,29.75,NE,42,7.0,7.0,95,0.00,,,0.03,Wunderground v.1.15,2013-05-11 12:30:00,
2013-05-11 08:40:00,65.1,63.3,29.75,NNW,341,8.0,8.0,94,0.00,,,0.03,Wunderground v.1.15,2013-05-11 12:40:00,
2013-05-11 08:45:00,65.1,63.3,29.75,ENE,66,9.0,9.0,94,0.00,,,0.03,Wunderground v.1.15,2013-05-11 12:45:00,
2013-05-11 08:50:00,65.1,63.3,29.74,NE,43,8.0,8.0,94,0.00,,,0.03,Wunderground v.1.15,2013-05-11 12:50:00,
2013-05-11 09:00:00,65.4,63.6,29.74,ENE,60,6.0,13.0,94,0.00,,,0.03,Wunderground v.1.15,2013-05-11 13:00:00,
2013-05-11 09:10:00,65.5,63.4,29.74,NE,35,6.0,6.0,93,0.00,,,0.03,Wunderground v.1.15,2013-05-11 13:10:00,
2013-05-11 09:15:00,65.5,63.4,29.74,NE,42,7.0,7.0,93,0.00,,,0.03,Wunderground v.1.15,2013-05-11 13:15:00,
2013-05-11 09:20:00,65.6,63.2,29.74,NE,37,8.0,13.0,92,0.00,,,0.03,Wunderground v.1.15,2013-05-11 13:20:00,
2013-05-11 09:30:00,65.7,63.3,29.74,NE,41,8.0,14.0,92,0.00,,,0.03,Wunderground v.1.15,2013-05-11 13:30:00,
2013-05-11 09:35:00,65.7,63.3,29.74,NE,52,9.0,14.0,92,0.00,,,0.03,Wunderground v.1.15,2013-05-11 13:35:00,
2013-05-11 09:45:00,65.7,63.0,29.74,NNE,20,10.0,12.0,91,0.00,,,0.03,Wunderground v.1.15,2013-05-11 13:45:00,
2013-05-11 10:00:00,66.2,63.5,29.74,NNE,30,8.0,16.0,91,0.00,,,0.03,Wunderground v.1.15,2013-05-11 14:00:00,
2013-05-11 10:10:00,66.3,63.3,29.73,NE,49,10.0,10.0,90,0.00,,,0.03,Wunderground v.1.15,2013-05-11 14:10:00,
2013-05-11 10:15:00,66.3,63.3,29.73,NE,43,10.0,16.0,90,0.00,,,0.03,Wunderground v.1.15,2013-05-11 14:15:00,
2013-05-11 10:25:00,66.4,63.4,29.73,ENE,59,9.0,16.0,90,0.00,,,0.03,Wunderground v.1.15,2013-05-11 14:25:00,
2013-05-11 10:30:00,66.6,63.6,29.73,NE,51,9.0,18.0,90,0.00,,,0.03,Wunderground v.1.15,2013-05-11 14:30:00,
2013-05-11 10:40:00,66.6,63.3,29.73,NE,53,10.0,18.0,89,0.00,,,0.03,Wunderground v.1.15,2013-05-11 14:40:00,
2013-05-11 10:50:00,66.7,63.7,29.73,ENE,71,9.0,9.0,90,0.00,,,0.03,Wunderground v.1.15,2013-05-11 14:50:00,
2013-05-11 10:55:00,67.0,64.0,29.73,NE,49,8.0,18.0,90,0.00,,,0.03,Wunderground v.1.15,2013-05-11 14:55:00,
2013-05-11 11:05:00,67.7,64.0,29.73,ENE,60,7.0,18.0,88,0.00,,,0.03,Wunderground v.1.15,2013-05-11 15:05:00,
2013-05-11 11:10:00,68.1,64.4,29.74,North,8,7.0,7.0,88,0.00,,,0.03,Wunderground v.1.15,2013-05-11 15:10:00,
2013-05-11 11:15:00,68.1,64.1,29.73,NE,45,9.0,10.0,87,0.00,,,0.03,Wunderground v.1.15,2013-05-11 15:15:00,
2013-05-11 11:25:00,68.4,64.0,29.73,ENE,62,8.0,16.0,86,0.00,,,0.03,Wunderground v.1.15,2013-05-11 15:25:00,
2013-05-11 11:30:00,68.5,64.1,29.72,NE,51,8.0,8.0,86,0.00,,,0.03,Wunderground v.1.15,2013-05-11 15:30:00,
2013-05-11 11:40:00,68.7,64.0,29.73,NE,53,8.0,14.0,85,0.00,,,0.03,Wunderground v.1.15,2013-05-11 15:40:00,
2013-05-11 11:50:00,68.8,63.4,29.73,East,86,10.0,10.0,83,0.00,,,0.03,Wunderground v.1.15,2013-05-11 15:50:00,
2013-05-11 11:55:00,68.9,63.9,29.73,NNE,27,8.0,14.0,84,0.00,,,0.03,Wunderground v.1.15,2013-05-11 15:55:00,
2013-05-11 12:00:00,69.0,63.6,29.72,ENE,71,7.0,17.0,83,0.00,,,0.03,Wunderground v.1.15,2013-05-11 16:00:00,
2013-05-11 12:10:00,69.1,63.0,29.71,ENE,57,7.0,7.0,81,0.00,,,0.03,Wunderground v.1.15,2013-05-11 16:10:00,
2013-05-11 12:15:00,69.2,63.5,29.71,East,82,6.0,8.0,82,0.00,,,0.03,Wunderground v.1.15,2013-05-11 16:15:00,
2013-05-11 12:30:00,69.0,63.3,29.71,East,93,7.0,13.0,82,0.00,,,0.03,Wunderground v.1.15,2013-05-11 16:30:00,
2013-05-11 12:35:00,68.6,62.9,29.71,ENE,75,8.0,13.0,82,0.00,,,0.03,Wunderground v.1.15,2013-05-11 16:35:00,
2013-05-11 12:45:00,67.7,63.0,29.71,ENE,72,6.0,13.0,85,0.00,,,0.04,Wunderground v.1.15,2013-05-11 16:45:00,
2013-05-11 12:50:00,67.2,62.9,29.72,ESE,117,6.0,13.0,86,0.07,,,0.05,Wunderground v.1.15,2013-05-11 16:50:00,
2013-05-11 12:55:00,66.1,62.8,29.71,East,84,8.0,13.0,89,0.49,,,0.07,Wunderground v.1.15,2013-05-11 16:55:00,
2013-05-11 13:00:00,65.1,62.7,29.71,East,97,8.0,16.0,92,0.17,,,0.09,Wunderground v.1.15,2013-05-11 17:00:00,
2013-05-11 13:10:00,64.6,62.8,29.71,ESE,108,6.0,6.0,94,0.04,,,0.09,Wunderground v.1.15,2013-05-11 17:10:00,
2013-05-11 13:15:00,64.7,62.9,29.71,SE,124,5.0,16.0,94,0.00,,,0.09,Wunderground v.1.15,2013-05-11 17:15:00,
2013-05-11 13:25:00,64.5,62.4,29.71,ESE,108,7.0,8.0,93,0.00,,,0.09,Wunderground v.1.15,2013-05-11 17:25:00,
2013-05-11 13:35:00,64.5,62.4,29.71,East,101,7.0,15.0,93,0.00,,,0.09,Wunderground v.1.15,2013-05-11 17:35:00,
2013-05-11 13:40:00,64.4,62.3,29.70,East,79,8.0,8.0,93,0.00,,,0.10,Wunderground v.1.15,2013-05-11 17:40:00,
2013-05-11 13:45:00,64.5,62.7,29.70,East,91,7.0,15.0,94,0.00,,,0.10,Wunderground v.1.15,2013-05-11 17:45:00,
2013-05-11 13:55:00,64.7,63.2,29.70,ESE,114,6.0,15.0,95,0.00,,,0.10,Wunderground v.1.15,2013-05-11 17:55:00,
2013-05-11 14:00:00,64.8,63.0,29.69,ENE,72,5.0,13.0,94,0.00,,,0.11,Wunderground v.1.15,2013-05-11 18:00:00,
2013-05-11 14:10:00,65.2,63.4,29.69,ENE,71,7.0,7.0,94,0.00,,,0.11,Wunderground v.1.15,2013-05-11 18:10:00,
2013-05-11 14:15:00,65.6,63.8,29.69,East,79,6.0,13.0,94,0.00,,,0.11,Wunderground v.1.15,2013-05-11 18:15:00,
2013-05-11 14:20:00,66.2,64.1,29.69,NE,41,6.0,13.0,93,0.00,,,0.11,Wunderground v.1.15,2013-05-11 18:20:00,
2013-05-11 14:30:00,66.8,63.8,29.68,NNE,32,7.0,11.0,90,0.00,,,0.11,Wunderground v.1.15,2013-05-11 18:30:00,
2013-05-11 14:40:00,67.8,64.4,29.68,NE,49,9.0,9.0,89,0.00,,,0.11,Wunderground v.1.15,2013-05-11 18:40:00,
2013-05-11 14:45:00,68.2,64.5,29.68,NE,42,9.0,12.0,88,0.00,,,0.11,Wunderground v.1.15,2013-05-11 18:45:00,
2013-05-11 14:50:00,68.6,63.9,29.69,NE,39,10.0,11.0,85,0.00,,,0.11,Wunderground v.1.15,2013-05-11 18:50:00,
2013-05-11 15:00:00,69.3,63.6,29.69,ENE,58,10.0,19.0,82,0.00,,,0.11,Wunderground v.1.15,2013-05-11 19:00:00,
2013-05-11 15:10:00,69.7,63.6,29.68,East,79,11.0,11.0,81,0.00,,,0.11,Wunderground v.1.15,2013-05-11 19:10:00,
2013-05-11 15:15:00,69.9,63.8,29.68,NE,50,10.0,19.0,81,0.00,,,0.11,Wunderground v.1.15,2013-05-11 19:15:00,
2013-05-11 15:25:00,70.3,63.1,29.68,ENE,77,9.0,19.0,78,0.00,,,0.11,Wunderground v.1.15,2013-05-11 19:25:00,
2013-05-11 15:30:00,70.8,63.2,29.67,ENE,71,9.0,18.0,77,0.00,,,0.11,Wunderground v.1.15,2013-05-11 19:30:00,
2013-05-11 15:40:00,71.2,62.1,29.67,NE,54,11.0,11.0,73,0.00,,,0.11,Wunderground v.1.15,2013-05-11 19:40:00,
2013-05-11 15:45:00,71.2,62.5,29.67,NE,47,10.0,18.0,74,0.00,,,0.11,Wunderground v.1.15,2013-05-11 19:45:00,
2013-05-11 15:55:00,71.7,63.0,29.67,ENE,63,8.0,18.0,74,0.00,,,0.11,Wunderground v.1.15,2013-05-11 19:55:00,
2013-05-11 16:00:00,71.8,62.7,29.67,East,96,8.0,8.0,73,0.00,,,0.11,Wunderground v.1.15,2013-05-11 20:00:00,
2013-05-11 16:10:00,72.0,62.5,29.67,East,86,9.0,9.0,72,0.00,,,0.11,Wunderground v.1.15,2013-05-11 20:10:00,
2013-05-11 16:15:00,72.0,62.5,29.66,East,84,10.0,10.0,72,0.00,,,0.11,Wunderground v.1.15,2013-05-11 20:15:00,
2013-05-11 16:25:00,71.5,61.6,29.66,ENE,78,8.0,15.0,71,0.00,,,0.11,Wunderground v.1.15,2013-05-11 20:25:00,
2013-05-11 16:30:00,72.0,62.5,29.66,East,83,7.0,15.0,72,0.00,,,0.11,Wunderground v.1.15,2013-05-11 20:30:00,
2013-05-11 16:40:00,72.7,62.8,29.66,ENE,64,7.0,7.0,71,0.00,,,0.11,Wunderground v.1.15,2013-05-11 20:40:00,
2013-05-11 16:50:00,72.7,63.5,29.66,NE,50,6.0,15.0,73,0.00,,,0.11,Wunderground v.1.15,2013-05-11 20:50:00,
2013-05-11 16:55:00,72.6,62.7,29.66,NE,53,6.0,15.0,71,0.00,,,0.11,Wunderground v.1.15,2013-05-11 20:55:00,
2013-05-11 17:00:00,72.4,63.3,29.66,North,4,7.0,12.0,73,0.00,,,0.11,Wunderground v.1.15,2013-05-11 21:00:00,
2013-05-11 17:10:00,72.1,63.0,29.66,NE,43,7.0,12.0,73,0.00,,,0.11,Wunderground v.1.15,2013-05-11 21:10:00,
2013-05-11 17:20:00,71.6,63.6,29.66,ENE,61,6.0,12.0,76,0.00,,,0.11,Wunderground v.1.15,2013-05-11 21:20:00,
2013-05-11 17:25:00,71.4,63.8,29.66,ENE,64,6.0,12.0,77,0.00,,,0.11,Wunderground v.1.15,2013-05-11 21:25:00,
2013-05-11 17:35:00,70.2,63.0,29.68,SE,142,5.0,10.0,78,0.00,,,0.11,Wunderground v.1.15,2013-05-11 21:35:00,
2013-05-11 17:40:00,68.1,63.4,29.68,ESE,115,6.0,13.0,85,0.00,,,0.11,Wunderground v.1.15,2013-05-11 21:40:00,
2013-05-11 17:50:00,64.3,61.6,29.69,SE,131,9.0,9.0,91,0.99,,,0.37,Wunderground v.1.15,2013-05-11 21:50:00,
2013-05-11 17:55:00,63.8,61.4,29.69,East,97,6.0,13.0,92,0.24,,,0.41,Wunderground v.1.15,2013-05-11 21:55:00,
2013-05-11 18:00:00,63.4,61.0,29.69,East,89,6.0,6.0,92,0.24,,,0.43,Wunderground v.1.15,2013-05-11 22:00:00,
2013-05-11 18:10:00,63.3,60.9,29.68,SE,146,4.0,4.0,92,0.07,,,0.44,Wunderground v.1.15,2013-05-11 22:10:00,
2013-05-11 18:20:00,63.8,61.7,29.68,SSE,159,3.0,20.0,93,0.00,,,0.44,Wunderground v.1.15,2013-05-11 22:20:00,
2013-05-11 18:25:00,63.9,61.5,29.67,ESE,114,3.0,20.0,92,0.00,,,0.44,Wunderground v.1.15,2013-05-11 22:25:00,
2013-05-11 18:30:00,63.9,61.5,29.68,ESE,102,2.0,2.0,92,0.00,,,0.44,Wunderground v.1.15,2013-05-11 22:30:00,
2013-05-11 18:40:00,63.8,61.4,29.68,East,99,1.0,1.0,92,0.00,,,0.44,Wunderground v.1.15,2013-05-11 22:40:00,
2013-05-11 18:45:00,63.7,61.3,29.67,East,99,1.0,15.0,92,0.00,,,0.44,Wunderground v.1.15,2013-05-11 22:45:00,
2013-05-11 18:55:00,63.6,60.9,29.68,East,101,0.0,15.0,91,0.00,,,0.44,Wunderground v.1.15,2013-05-11 22:55:00,
2013-05-11 19:00:00,63.5,60.8,29.68,East,98,0.0,6.0,91,0.00,,,0.44,Wunderground v.1.15,2013-05-11 23:00:00,
2013-05-11 19:10:00,63.9,61.5,29.68,NNW,330,2.0,6.0,92,0.00,,,0.44,Wunderground v.1.15,2013-05-11 23:10:00,
2013-05-11 19:15:00,63.7,61.3,29.68,NNW,343,2.0,6.0,92,0.00,,,0.44,Wunderground v.1.15,2013-05-11 23:15:00,
2013-05-11 19:25:00,63.6,61.2,29.69,ENE,58,2.0,6.0,92,0.00,,,0.44,Wunderground v.1.15,2013-05-11 23:25:00,
2013-05-11 19:35:00,63.5,61.4,29.69,ENE,59,0.0,4.0,93,0.00,,,0.44,Wunderground v.1.15,2013-05-11 23:35:00,
2013-05-11 19:40:00,63.4,61.3,29.69,NNE,16,0.0,4.0,93,0.00,,,0.44,Wunderground v.1.15,2013-05-11 23:40:00,
2013-05-11 19:50:00,63.7,61.9,29.69,NNE,27,1.0,4.0,94,0.00,,,0.44,Wunderground v.1.15,2013-05-11 23:50:00,
2013-05-11 19:55:00,63.6,61.8,29.69,NE,42,2.0,4.0,94,0.00,,,0.44,Wunderground v.1.15,2013-05-11 23:55:00,
2013-05-11 20:00:00,63.3,61.5,29.69,NE,46,1.0,1.0,94,0.00,,,0.44,Wunderground v.1.15,2013-05-12 00:00:00,
2013-05-11 20:10:00,63.0,61.5,29.69,NE,45,0.0,3.0,95,0.00,,,0.44,Wunderground v.1.15,2013-05-12 00:10:00,
2013-05-11 20:15:00,62.8,61.3,29.69,NE,46,0.0,3.0,95,0.00,,,0.44,Wunderground v.1.15,2013-05-12 00:15:00,
2013-05-11 20:25:00,62.4,60.9,29.69,WSW,256,0.0,3.0,95,0.00,,,0.44,Wunderground v.1.15,2013-05-12 00:25:00,
2013-05-11 20:30:00,62.1,60.7,29.69,WSW,256,1.0,1.0,95,0.00,,,0.44,Wunderground v.1.15,2013-05-12 00:30:00,
2013-05-11 20:40:00,61.8,60.6,29.69,WSW,256,0.0,2.0,96,0.00,,,0.44,Wunderground v.1.15,2013-05-12 00:40:00,
2013-05-11 20:45:00,61.8,60.6,29.69,WSW,256,0.0,2.0,96,0.00,,,0.44,Wunderground v.1.15,2013-05-12 00:45:00,
2013-05-11 20:55:00,61.7,60.5,29.70,WSW,256,0.0,2.0,96,0.00,,,0.44,Wunderground v.1.15,2013-05-12 00:55:00,
2013-05-11 21:00:00,61.4,60.5,29.70,WSW,257,0.0,1.0,97,0.00,,,0.44,Wunderground v.1.15,2013-05-12 01:00:00,
2013-05-11 21:10:00,61.4,60.5,29.70,SSE,163,0.0,1.0,97,0.00,,,0.44,Wunderground v.1.15,2013-05-12 01:10:00,
2013-05-11 21:15:00,61.4,60.5,29.70,South,187,0.0,2.0,97,0.00,,,0.44,Wunderground v.1.15,2013-05-12 01:15:00,
2013-05-11 21:25:00,61.1,60.2,29.69,SSW,204,3.0,4.0,97,0.00,,,0.44,Wunderground v.1.15,2013-05-12 01:25:00,
2013-05-11 21:30:00,60.9,60.0,29.69,SW,215,4.0,4.0,97,0.00,,,0.44,Wunderground v.1.15,2013-05-12 01:30:00,
2013-05-11 21:40:00,60.6,60.0,29.70,SSW,201,2.0,2.0,98,0.00,,,0.44,Wunderground v.1.15,2013-05-12 01:40:00,
2013-05-11 21:45:00,60.6,60.0,29.70,SSW,201,1.0,5.0,98,0.00,,,0.44,Wunderground v.1.15,2013-05-12 01:45:00,
2013-05-11 21:55:00,60.7,60.1,29.70,SSW,201,0.0,5.0,98,0.00,,,0.44,Wunderground v.1.15,2013-05-12 01:55:00,
2013-05-11 22:00:00,60.6,60.0,29.70,South,172,0.0,5.0,98,0.00,,,0.44,Wunderground v.1.15,2013-05-12 02:00:00,
2013-05-11 22:10:00,60.4,59.8,29.70,South,172,0.0,5.0,98,0.00,,,0.44,Wunderground v.1.15,2013-05-12 02:10:00,
2013-05-11 22:15:00,60.1,59.5,29.71,South,169,0.0,5.0,98,0.00,,,0.44,Wunderground v.1.15,2013-05-12 02:15:00,
2013-05-11 22:25:00,60.3,60.0,29.70,SE,143,1.0,6.0,99,0.00,,,0.44,Wunderground v.1.15,2013-05-12 02:25:00,
2013-05-11 22:30:00,60.2,59.6,29.70,SSE,156,3.0,5.0,98,0.00,,,0.44,Wunderground v.1.15,2013-05-12 02:30:00,
2013-05-11 22:40:00,60.1,59.2,29.71,SE,134,4.0,4.0,97,0.00,,,0.44,Wunderground v.1.15,2013-05-12 02:40:00,
2013-05-11 22:50:00,60.1,59.0,29.72,ESE,114,2.0,5.0,96,0.00,,,0.44,Wunderground v.1.15,2013-05-12 02:50:00,
2013-05-11 22:55:00,60.1,58.7,29.72,ESE,114,2.0,5.0,95,0.00,,,0.44,Wunderground v.1.15,2013-05-12 02:55:00,
2013-05-11 23:00:00,60.3,58.9,29.72,East,100,2.0,6.0,95,0.00,,,0.44,Wunderground v.1.15,2013-05-12 03:00:00,
2013-05-11 23:10:00,60.4,58.7,29.71,ESE,117,1.0,6.0,94,0.00,,,0.44,Wunderground v.1.15,2013-05-12 03:10:00,
2013-05-11 23:15:00,60.5,58.5,29.71,ESE,115,2.0,6.0,93,0.00,,,0.44,Wunderground v.1.15,2013-05-12 03:15:00,
2013-05-11 23:20:00,60.5,57.9,29.71,SE,129,2.0,6.0,91,0.00,,,0.44,Wunderground v.1.15,2013-05-12 03:20:00,
2013-05-11 23:30:00,60.8,57.5,29.70,SE,143,2.0,4.0,89,0.00,,,0.44,Wunderground v.1.15,2013-05-12 03:30:00,
2013-05-11 23:35:00,60.8,57.2,29.71,SE,142,2.0,4.0,88,0.00,,,0.44,Wunderground v.1.15,2013-05-12 03:35:00,
2013-05-11 23:40:00,60.8,56.9,29.71,SE,134,2.0,2.0,87,0.00,,,0.44,Wunderground v.1.15,2013-05-12 03:40:00,
2013-05-11 23:45:00,60.8,56.6,29.71,SE,138,2.0,4.0,86,0.00,,,0.44,Wunderground v.1.15,2013-05-12 03:45:00,
2013-05-11 23:55:00,60.6,56.7,29.71,East,101,1.0,4.0,87,0.00,,,0.44,Wunderground v.1.15,2013-05-12 03:55:00,